TimeCST,TemperatureF,Dew PointF,Humidity,Sea Level PressureIn,VisibilityMPH,Wind Direction,Wind SpeedMPH,Gust SpeedMPH,PrecipitationIn,Events,Conditions,WindDirDegrees,DateUTC
12:15 AM,52.7,42.8,69,30.00,10.0,NNW,11.5,-,N/A,,Overcast,330,2012-12-04 06:15:00
12:35 AM,52.0,42.8,71,30.00,10.0,NNW,10.4,-,N/A,,Overcast,340,2012-12-04 06:35:00
12:55 AM,51.8,42.1,69,30.00,10.0,North,10.4,-,N/A,,Overcast,350,2012-12-04 06:55:00
1:15 AM,51.1,41.5,70,30.01,10.0,NNW,10.4,-,N/A,,Overcast,340,2012-12-04 07:15:00
1:35 AM,50.5,40.5,68,30.01,10.0,North,9.2,-,N/A,,Overcast,350,2012-12-04 07:35:00
1:55 AM,50.0,40.1,69,30.03,10.0,North,8.1,-,N/A,,Overcast,350,2012-12-04 07:55:00
2:15 AM,48.6,39.7,72,30.03,10.0,North,8.1,-,N/A,,Mostly Cloudy,350,2012-12-04 08:15:00
2:35 AM,47.5,39.4,73,30.05,10.0,North,6.9,-,N/A,,Clear,350,2012-12-04 08:35:00
2:55 AM,46.6,38.8,74,30.06,10.0,NNW,8.1,-,N/A,,Clear,340,2012-12-04 08:55:00
3:15 AM,46.2,38.3,74,30.07,10.0,NNW,6.9,-,N/A,,Clear,340,2012-12-04 09:15:00
3:35 AM,45.1,37.9,76,30.08,10.0,NNW,5.8,-,N/A,,Clear,340,2012-12-04 09:35:00
3:55 AM,44.8,38.3,78,30.08,10.0,NNW,6.9,-,N/A,,Clear,330,2012-12-04 09:55:00
4:15 AM,45.3,38.3,76,30.10,10.0,NW,6.9,-,N/A,,Clear,320,2012-12-04 10:15:00
4:35 AM,44.1,37.8,78,30.10,10.0,NNW,6.9,-,N/A,,Clear,330,2012-12-04 10:35:00
4:55 AM,44.6,37.6,76,30.10,10.0,NNW,9.2,-,N/A,,Clear,340,2012-12-04 10:55:00
5:15 AM,44.6,37.4,76,30.10,10.0,NNW,6.9,-,N/A,,Clear,340,2012-12-04 11:15:00
5:35 AM,44.6,37.2,75,30.10,10.0,NNW,8.1,-,N/A,,Clear,340,2012-12-04 11:35:00
5:55 AM,43.9,37.4,78,30.11,10.0,NNW,6.9,-,N/A,,Clear,340,2012-12-04 11:55:00
6:15 AM,43.7,36.9,77,30.12,10.0,NNW,6.9,-,N/A,,Clear,330,2012-12-04 12:15:00
6:35 AM,43.5,36.5,76,30.13,10.0,NW,8.1,-,N/A,,Clear,320,2012-12-04 12:35:00
6:55 AM,43.3,36.7,77,30.14,10.0,NNW,8.1,-,N/A,,Clear,330,2012-12-04 12:55:00
7:15 AM,43.2,36.5,77,30.15,10.0,NNW,8.1,-,N/A,,Clear,330,2012-12-04 13:15:00
7:35 AM,42.8,37.4,81,30.16,10.0,NW,9.2,-,N/A,,Clear,320,2012-12-04 13:35:00
7:55 AM,43.3,36.7,77,30.16,10.0,NW,9.2,-,N/A,,Clear,320,2012-12-04 13:55:00
8:15 AM,43.5,36.7,77,30.17,10.0,NW,5.8,-,N/A,,Clear,320,2012-12-04 14:15:00
8:35 AM,43.2,37.0,79,30.18,10.0,NW,8.1,-,N/A,,Clear,310,2012-12-04 14:35:00
8:55 AM,44.1,37.4,77,30.18,10.0,WNW,6.9,-,N/A,,Clear,300,2012-12-04 14:55:00
9:15 AM,44.6,37.4,76,30.18,10.0,WNW,8.1,-,N/A,,Clear,300,2012-12-04 15:15:00
9:35 AM,45.9,37.4,72,30.20,10.0,WNW,9.2,-,N/A,,Clear,300,2012-12-04 15:35:00
9:55 AM,47.7,36.7,66,30.21,10.0,NW,8.1,-,N/A,,Clear,310,2012-12-04 15:55:00
10:15 AM,49.5,36.1,60,30.21,10.0,WNW,9.2,-,N/A,,Clear,300,2012-12-04 16:15:00
10:35 AM,50.9,35.6,56,30.21,10.0,NW,10.4,-,N/A,,Clear,310,2012-12-04 16:35:00
10:55 AM,52.0,35.1,53,30.21,10.0,NW,10.4,-,N/A,,Clear,310,2012-12-04 16:55:00
11:15 AM,52.7,34.5,50,30.21,10.0,NW,9.2,-,N/A,,Clear,320,2012-12-04 17:15:00
11:35 AM,54.0,34.5,48,30.20,10.0,WNW,9.2,-,N/A,,Clear,300,2012-12-04 17:35:00
11:55 AM,54.7,34.3,46,30.20,10.0,WNW,9.2,-,N/A,,Clear,300,2012-12-04 17:55:00
12:15 PM,56.1,33.3,42,30.19,10.0,WNW,11.5,-,N/A,,Clear,290,2012-12-04 18:15:00
12:35 PM,57.2,31.8,38,30.19,10.0,WNW,10.4,-,N/A,,Clear,300,2012-12-04 18:35:00
12:55 PM,57.7,30.7,36,30.18,10.0,WNW,10.4,-,N/A,,Clear,300,2012-12-04 18:55:00
1:15 PM,59.0,30.2,34,30.18,10.0,WNW,12.7,-,N/A,,Clear,290,2012-12-04 19:15:00
1:35 PM,59.2,30.0,33,30.18,10.0,NW,12.7,-,N/A,,Clear,310,2012-12-04 19:35:00
1:55 PM,59.5,29.5,32,30.17,10.0,WNW,15.0,18.4,N/A,,Clear,290,2012-12-04 19:55:00
2:15 PM,59.7,28.4,30,30.18,10.0,WNW,16.1,20.7,N/A,,Clear,300,2012-12-04 20:15:00
2:35 PM,59.9,29.5,32,30.19,10.0,WNW,15.0,-,N/A,,Clear,290,2012-12-04 20:35:00
2:55 PM,59.5,29.1,32,30.19,10.0,WNW,12.7,-,N/A,,Clear,290,2012-12-04 20:55:00
3:15 PM,59.4,28.0,30,30.20,10.0,WNW,13.8,-,N/A,,Clear,290,2012-12-04 21:15:00
3:35 PM,59.0,29.1,32,30.20,10.0,WNW,11.5,-,N/A,,Clear,290,2012-12-04 21:35:00
3:55 PM,57.6,29.8,35,30.21,10.0,West,9.2,-,N/A,,Clear,280,2012-12-04 21:55:00
4:15 PM,55.8,29.5,37,30.22,10.0,West,6.9,-,N/A,,Clear,270,2012-12-04 22:15:00
4:35 PM,53.6,28.4,38,30.22,10.0,West,6.9,-,N/A,,Clear,270,2012-12-04 22:35:00
4:55 PM,51.8,28.4,41,30.22,10.0,West,5.8,-,N/A,,Clear,260,2012-12-04 22:55:00
5:15 PM,49.5,27.9,43,30.22,10.0,West,5.8,-,N/A,,Clear,260,2012-12-04 23:15:00
5:35 PM,46.6,27.5,47,30.23,10.0,West,6.9,-,N/A,,Clear,260,2012-12-04 23:35:00
5:55 PM,44.8,28.0,52,30.23,10.0,West,6.9,-,N/A,,Clear,270,2012-12-04 23:55:00
6:15 PM,40.8,28.4,61,30.24,10.0,West,6.9,-,N/A,,Clear,280,2012-12-05 00:15:00
6:35 PM,39.2,27.5,63,30.25,10.0,West,8.1,-,N/A,,Clear,280,2012-12-05 00:35:00
6:55 PM,39.2,27.5,63,30.25,10.0,WNW,8.1,-,N/A,,Clear,290,2012-12-05 00:55:00
7:15 PM,37.8,27.5,67,30.26,10.0,WNW,9.2,-,N/A,,Clear,300,2012-12-05 01:15:00
7:35 PM,39.2,27.5,63,30.26,10.0,NW,8.1,-,N/A,,Clear,310,2012-12-05 01:35:00
7:55 PM,36.9,27.1,68,30.27,10.0,NW,6.9,-,N/A,,Clear,320,2012-12-05 01:55:00
8:15 PM,37.6,27.0,66,30.27,10.0,NW,6.9,-,N/A,,Clear,320,2012-12-05 02:15:00
8:35 PM,40.3,27.7,61,30.28,10.0,NW,8.1,-,N/A,,Clear,320,2012-12-05 02:35:00
8:55 PM,39.6,27.9,63,30.28,10.0,NNW,8.1,-,N/A,,Clear,330,2012-12-05 02:55:00
9:15 PM,40.1,28.4,63,30.29,10.0,NNW,6.9,-,N/A,,Clear,340,2012-12-05 03:15:00
9:35 PM,38.8,27.5,64,30.29,10.0,NNW,5.8,-,N/A,,Clear,340,2012-12-05 03:35:00
9:55 PM,38.5,27.5,65,30.30,10.0,NNW,3.5,-,N/A,,Clear,330,2012-12-05 03:55:00
10:15 PM,32.2,26.1,78,30.30,10.0,Calm,Calm,-,N/A,,Clear,0,2012-12-05 04:15:00
10:35 PM,35.8,27.1,71,30.30,10.0,Calm,Calm,-,N/A,,Clear,0,2012-12-05 04:35:00
10:55 PM,36.5,27.1,69,30.31,10.0,North,5.8,-,N/A,,Clear,350,2012-12-05 04:55:00
11:10 PM,35.6,26.6,70,30.32,10.0,North,8.1,-,N/A,,Clear,350,2012-12-05 05:10:00
11:15 PM,35.6,27.7,73,30.32,10.0,North,8.1,-,N/A,,Clear,350,2012-12-05 05:15:00
11:35 PM,34.5,28.2,78,30.32,10.0,North,8.1,-,N/A,,Clear,350,2012-12-05 05:35:00
11:55 PM,34.5,28.4,78,30.32,10.0,North,8.1,-,N/A,,Clear,360,2012-12-05 05:55:00